Temp
14 13 13 12 12 12 12 12 12 11 10 9 9 10 10 10 10 9 9 9 8 8 8 7 7 7 7 7 7 6 6 7 7 7 7 6 6 6 6 6 6 6 4
13 13 13 12 12 12 11 11 11 11 10 9 9 10 10 10 9 9 9 9 8 8 8 7 6 7 7 8 7 6 7 7 6 7 6 6 6 6 6 6 6 5 4
13 13 12 12 12 11 11 11 10 10 10 9 9 9 10 10 9 9 9 8 8 7 7 6 6 6 6 6 6 6 6 6 6 6 6 6 6 6 6 6 6 4 4
12 12 11 11 11 11 11 9 9 9 9 9 9 9 9 9 9 9 9 8 7 7 6 6 5 6 5 5 6 6 6 6 6 6 6 5 6 5 5 5 4 4 4
11 11 11 10 11 11 10 8 8 8 8 9 9 9 9 9 9 9 8 8 6 6 5 5 5 5 6 5 5 5 6 6 6 6 6 5 6 5 5 5 5 4 4
11 11 10 10 10 10 9 8 8 8 8 8 8 9 9 8 8 7 7 6 5 5 5 5 5 5 5 5 6 6 6 6 6 6 6 5 5 5 5 4 4 4 4
10 10 9 9 8 8 8 8 7 8 8 8 8 8 8 8 7 7 6 5 6 5 5 5 5 5 5 6 6 5 5 6 5 5 5 5 4 4 4 4 4 3 4
10 9 8 8 8 8 8 7 7 7 7 7 7 8 7 7 7 6 5 5 5 5 6 6 6 6 5 5 5 5 5 5 5 5 4 5 5 4 4 4 4 3 3
9 8 8 8 8 8 7 7 6 6 7 7 7 7 6 6 6 6 5 5 5 5 5 5 6 5 5 5 5 4 4 5 5 5 5 5 5 5 4 4 4 4 3
8 8 8 8 7 7 7 7 7 6 7 7 7 7 7 7 6 5 5 5 5 5 5 5 5 5 5 5 5 5 5 5 4 4 4 5 5 4 4 4 3 3 2
8 8 8 8 7 7 7 7 6 6 6 6 7 7 6 6 6 6 5 5 5 4 4 4 5 5 5 4 5 5 4 4 4 4 4 4 4 4 3 3 2 2 2
7 7 7 8 7 7 6 6 6 6 6 6 6 7 6 6 6 5 5 5 5 5 4 4 5 5 4 4 5 5 5 4 4 3 3 4 4 3 3 3 3 2 2
7 7 7 7 6 6 6 6 6 6 6 6 6 7 7 6 6 6 5 5 5 5 5 4 4 4 4 5 5 5 4 4 3 1 2 1 1 1 1 3 4 3 3
7 7 7 7 6 5 5 6 6 6 6 5 6 7 7 7 6 6 6 5 6 5 5 5 4 4 4 4 4 4 4 4 4 3 1 1 1 1 1 1 1 4 4
6 6 7 6 6 6 5 5 6 6 5 6 6 6 7 7 7 7 6 5 5 5 4 4 5 4 4 4 4 4 4 4 3 3 1 1 1 1 1 1 1 1 1
6 6 6 5 5 5 5 5 5 5 5 5 5 6 7 7 7 7 6 7 6 5 4 5 5 5 4 4 4 4 3 4 3 2 1 1 1 1 1 1 1 1 1
5 5 5 5 5 5 5 5 5 5 5 5 5 6 6 7 7 7 7 7 6 6 5 4 4 4 4 4 3 2 1 1 1 1 1 1 1 1 1 1 1 1 1
5 5 5 5 5 5 5 5 5 5 5 5 5 5 6 7 6 6 7 7 6 6 6 4 4 4 2 1 1 1 1 1 1 1 1 1 1 1 1 1 1 2 2
5 5 5 5 5 5 5 5 5 5 5 5 5 5 6 6 6 6 6 6 6 6 6 5 4 3 1 1 1 1 1 1 2 2 2 2 2 3 2 1 1 1 1
5 5 5 5 5 5 5 5 5 5 5 5 5 5 6 5 6 6 6 6 6 5 4 5 5 3 1 1 1 1 2 2 2 1 2 3 2 2 2 1 1 1 1
5 5 5 5 5 5 5 5 5 5 5 4 4 4 4 4 5 5 5 6 6 5 3 1 1 1 3 1 1 2 2 3 1 2 3 1 1 2 2 2 1 2 2
5 5 5 5 5 6 5 5 5 5 4 4 4 4 4 4 4 5 5 5 5 5 5 4 1 2 2 2 2 3 2 1 2 1 2 2 2 2 2 2 3 2 2
5 5 5 4 4 5 5 4 4 4 4 4 4 4 4 4 3 2 3 3 4 4 4 4 2 1 2 2 2 2 3 3 2 4 3 2 2 3 2 2 3 3 3
4 4 4 4 4 3 4 4 4 4 4 4 4 4 4 4 4 2 2 2 2 3 3 3 3 3 2 2 3 2 2 3 3 3 4 3 3 3 2 2 2 2 2
4 4 4 4 4 4 4 4 3 3 3 4 3 3 3 4 3 3 2 2 2 3 3 3 2 3 2 5 3 4 2 4 4 4 3 3 3 2 2 2 3 3 2
4 4 4 4 4 4 4 4 4 3 3 3 3 4 4 3 3 3 3 2 1 2 3 3 4 4 3 2 2 4 4 3 3 3 3 3 3 3 2 3 3 2 3
Height
3164 3162 3159 3156 3152 3148 3145 3140 3135 3130 3127 3126 3125 3124 3122 3121 3120 3119 3118 3118 3117 3118 3116 3115 3114 3115 3115 3115 3114 3114 3111 3112 3111 3115 3119 3125 3128 3130 3134 3137 3139 3140 3144
3157 3155 3152 3148 3145 3141 3137 3133 3128 3123 3120 3117 3116 3115 3113 3112 3111 3110 3109 3109 3107 3106 3106 3104 3104 3105 3104 3102 3102 3102 3100 3102 3107 3110 3113 3118 3121 3123 3127 3128 3131 3133 3139
3151 3148 3145 3142 3138 3133 3128 3124 3119 3115 3112 3109 3107 3106 3104 3103 3101 3101 3100 3099 3098 3097 3095 3093 3094 3094 3093 3093 3093 3093 3094 3098 3102 3105 3108 3112 3113 3115 3118 3120 3125 3129 3135
3144 3141 3138 3134 3131 3126 3121 3115 3110 3107 3103 3101 3099 3097 3095 3094 3093 3092 3091 3089 3088 3086 3084 3083 3082 3081 3084 3085 3087 3087 3084 3087 3093 3098 3102 3107 3110 3112 3115 3117 3121 3127 3133
3136 3134 3131 3128 3123 3120 3115 3108 3103 3099 3095 3092 3090 3089 3087 3086 3085 3084 3083 3081 3078 3077 3077 3076 3076 3079 3080 3082 3085 3087 3087 3089 3092 3094 3100 3104 3107 3110 3114 3118 3123 3128 3131
3130 3126 3122 3118 3114 3112 3108 3102 3096 3092 3088 3085 3083 3081 3079 3078 3077 3076 3074 3072 3074 3075 3075 3076 3079 3079 3079 3083 3086 3088 3088 3091 3094 3097 3099 3104 3108 3111 3114 3118 3122 3125 3128
3121 3118 3114 3111 3107 3103 3100 3095 3090 3085 3082 3078 3076 3074 3072 3071 3071 3070 3069 3071 3072 3073 3075 3077 3078 3080 3082 3085 3087 3088 3090 3093 3096 3098 3102 3105 3107 3111 3115 3118 3121 3124 3126
3113 3111 3106 3104 3100 3096 3092 3088 3083 3079 3075 3072 3070 3067 3066 3065 3065 3066 3067 3069 3071 3071 3073 3075 3077 3079 3081 3083 3086 3088 3090 3093 3095 3098 3101 3104 3107 3109 3113 3117 3120 3122 3123
3106 3104 3099 3096 3091 3088 3084 3080 3075 3072 3068 3065 3062 3061 3059 3060 3060 3061 3063 3065 3067 3068 3070 3072 3074 3076 3079 3080 3082 3085 3088 3090 3093 3096 3099 3102 3105 3108 3110 3112 3115 3117 3121
3098 3094 3090 3087 3083 3079 3076 3071 3068 3063 3060 3058 3056 3054 3053 3054 3054 3055 3058 3061 3063 3066 3068 3069 3070 3073 3075 3078 3080 3082 3086 3088 3091 3093 3097 3099 3102 3104 3107 3110 3112 3116 3121
3089 3086 3082 3076 3073 3070 3068 3063 3059 3056 3053 3050 3049 3048 3048 3048 3049 3049 3052 3056 3058 3060 3062 3065 3066 3069 3072 3074 3077 3080 3083 3084 3086 3090 3093 3095 3098 3100 3103 3106 3109 3113 3119
3078 3074 3070 3067 3064 3060 3057 3055 3051 3046 3043 3043 3043 3042 3042 3042 3043 3044 3045 3050 3053 3055 3057 3059 3061 3065 3068 3070 3073 3076 3079 3082 3084 3087 3089 3091 3093 3095 3098 3101 3105 3108 3111
3064 3061 3057 3053 3052 3050 3046 3044 3042 3042 3039 3037 3037 3037 3036 3037 3038 3040 3041 3044 3047 3049 3051 3052 3058 3060 3063 3066 3069 3072 3075 3078 3081 3084 3085 3089 3092 3093 3094 3095 3098 3102 3105
3051 3047 3044 3039 3039 3034 3036 3035 3034 3033 3032 3030 3031 3031 3031 3031 3032 3034 3037 3039 3042 3045 3045 3049 3053 3056 3059 3062 3065 3068 3070 3073 3076 3079 3083 3086 3089 3091 3091 3093 3092 3094 3098
3040 3035 3032 3028 3028 3027 3026 3027 3027 3026 3026 3024 3025 3025 3027 3026 3029 3030 3031 3034 3036 3040 3044 3047 3048 3051 3055 3058 3061 3062 3065 3067 3070 3073 3076 3080 3083 3086 3088 3089 3091 3093 3092
3028 3023 3019 3017 3017 3017 3017 3018 3019 3019 3018 3019 3019 3021 3021 3022 3024 3025 3027 3028 3031 3034 3038 3041 3044 3048 3051 3053 3055 3057 3057 3060 3063 3065 3068 3072 3076 3080 3082 3085 3087 3088 3090
3019 3014 3010 3008 3007 3009 3009 3011 3012 3012 3011 3012 3015 3016 3016 3018 3019 3020 3021 3023 3025 3029 3033 3037 3040 3042 3045 3047 3049 3052 3056 3057 3058 3060 3063 3065 3067 3071 3076 3078 3081 3082 3083
3015 3010 3005 3003 3004 3003 3003 3005 3005 3004 3005 3008 3009 3011 3012 3012 3014 3016 3017 3019 3021 3023 3027 3031 3034 3037 3039 3041 3043 3045 3048 3050 3052 3054 3055 3058 3060 3064 3068 3071 3073 3076 3075
3010 3006 3003 3000 2999 2999 3000 3000 3001 2999 2999 3001 3002 3006 3007 3008 3009 3010 3012 3014 3016 3018 3021 3023 3025 3029 3034 3036 3038 3038 3040 3041 3045 3046 3049 3050 3054 3057 3059 3062 3064 3066 3068
3006 3003 3000 2998 2996 2995 2995 2995 2994 2994 2994 2997 2998 2997 3000 3003 3004 3005 3006 3008 3009 3011 3012 3015 3018 3020 3024 3026 3029 3031 3032 3035 3037 3040 3041 3044 3046 3047 3049 3053 3055 3058 3060
3001 2998 2997 2995 2993 2990 2990 2989 2989 2989 2989 2990 2992 2995 2992 2997 2998 2998 2999 3001 3002 3004 3006 3011 3013 3013 3014 3018 3020 3022 3025 3029 3031 3032 3034 3034 3037 3039 3041 3045 3048 3050 3051
2997 2994 2992 2990 2988 2986 2985 2985 2984 2984 2983 2982 2983 2986 2986 2989 2990 2992 2993 2995 2997 2999 3000 3001 3005 3009 3010 3012 3013 3015 3017 3020 3021 3024 3024 3029 3031 3031 3034 3036 3038 3038 3042
2994 2990 2988 2983 2981 2982 2982 2981 2979 2978 2977 2975 2973 2973 2976 2979 2985 2986 2988 2990 2992 2994 2996 2997 2998 3002 3004 3005 3006 3009 3010 3011 3015 3017 3017 3017 3023 3022 3025 3027 3028 3030 3029
2993 2989 2986 2982 2978 2974 2978 2976 2973 2972 2972 2970 2969 2967 2970 2967 2973 2979 2983 2987 2989 2989 2991 2991 2993 2993 2996 2995 3000 3000 3004 3002 3004 3004 2999 3005 3014 3016 3017 3018 3019 3021 3021
2991 2988 2985 2981 2978 2976 2966 2972 2969 2968 2967 2966 2964 2963 2964 2965 2964 2968 2972 2976 2979 2980 2983 2975 2977 2983 2983 2979 2988 2990 2992 2991 2997 3002 3002 3003 3004 3005 3005 3005 3006 3007 3007
2987 2985 2982 2980 2977 2974 2972 2970 2968 2966 2964 2961 2958 2959 2959 2959 2960 2962 2964 2967 2969 2973 2974 2973 2974 2974 2972 2975 2978 2987 2987 2987 2988 2990 2990 2991 2992 2993 2993 2993 2994 2994 2994
Wind_Speed
24 24 24 26 30 35 38 39 36 32 31 30 30 32 32 33 34 37 37 37 41 41 42 43 41 43 41 45 45 47 44 40 36 32 36 37 38 40 38 31 27 29 21
25 26 28 31 35 38 42 42 39 36 32 32 32 32 32 33 33 35 36 37 41 42 42 44 43 44 38 38 40 38 30 26 31 38 28 28 38 43 40 31 29 30 23
26 27 30 34 38 44 49 46 41 35 33 32 32 31 31 31 31 32 34 36 37 41 40 37 38 41 34 34 29 28 31 29 30 32 33 28 30 27 23 31 31 23 21
27 29 32 35 38 44 52 44 39 35 34 32 31 30 29 28 29 31 34 33 34 39 40 42 37 34 22 17 17 19 22 33 23 25 22 14 14 12 23 25 21 22 17
29 30 33 35 38 46 46 39 36 36 36 33 31 31 28 26 27 27 29 31 30 22 12 10 10 13 11 7 9 7 5 6 5 9 10 18 14 19 21 18 14 19 16
31 34 36 36 35 40 39 40 38 34 32 32 31 30 30 28 27 23 24 14 10 8 4 6 8 5 5 6 8 8 6 4 4 5 8 12 11 15 22 16 21 18 18
34 36 35 34 32 36 39 40 38 34 33 32 30 28 27 27 22 19 12 16 12 13 11 9 8 10 10 12 11 9 10 9 8 9 10 12 15 15 16 16 18 16 16
34 32 32 31 29 35 39 40 40 35 34 33 30 27 23 21 20 17 17 20 17 18 16 13 12 13 14 15 17 14 14 14 13 14 13 13 14 15 16 14 14 15 14
27 30 33 34 35 34 37 38 40 40 34 34 29 29 25 20 21 21 26 21 22 20 21 15 20 16 12 13 16 15 16 17 15 16 15 14 13 14 17 19 21 18 16
32 32 32 35 36 36 36 39 41 41 34 31 30 25 22 19 20 22 29 24 21 22 22 19 17 18 18 20 19 17 16 14 14 15 15 16 16 16 16 18 19 18 13
37 40 41 38 39 38 38 38 40 40 30 28 26 22 19 19 20 22 32 30 23 26 26 22 16 17 18 21 17 16 15 15 17 14 15 17 18 18 20 20 20 19 14
43 43 47 46 42 38 36 35 36 36 24 25 24 19 22 20 21 20 27 36 32 31 24 21 14 15 16 19 19 17 19 19 18 16 16 18 20 21 21 22 24 24 26
50 49 49 47 43 37 33 32 35 36 28 24 22 19 18 21 22 20 17 21 25 24 22 18 17 17 20 19 20 19 20 21 19 15 16 17 16 14 14 19 23 26 29
45 44 43 41 36 35 32 33 35 30 25 22 23 20 19 17 20 24 23 20 22 19 15 17 19 20 21 18 18 18 19 22 23 21 17 15 16 18 21 19 20 19 27
41 41 39 39 35 32 31 27 27 27 24 21 23 21 18 15 17 18 22 20 20 17 22 19 21 20 21 19 17 19 22 23 24 23 18 20 19 19 20 20 19 19 19
43 39 33 31 28 26 26 24 24 24 19 18 21 21 18 14 16 17 18 19 20 20 22 19 19 19 19 20 21 22 25 26 27 24 21 23 21 20 21 21 20 23 23
32 24 25 22 21 20 23 23 23 21 18 16 19 20 19 14 13 16 18 19 20 21 21 22 21 21 22 25 21 18 18 18 17 18 21 22 21 24 24 24 26 27 24
27 24 23 16 19 18 17 18 19 19 16 14 16 19 20 17 15 15 18 20 21 22 21 25 26 26 22 21 21 20 23 27 30 28 24 23 22 21 21 25 27 25 26
25 24 19 14 14 14 17 18 15 15 16 16 19 21 23 23 20 19 20 20 22 24 24 25 25 22 20 22 22 26 23 21 18 20 19 20 15 20 25 28 27 28 28
22 21 18 17 16 16 17 20 19 18 18 18 18 27 23 24 24 22 20 19 20 23 23 25 28 25 25 24 21 25 23 26 27 25 26 25 23 24 19 23 24 24 26
22 17 16 18 18 20 17 16 17 19 19 18 21 19 25 23 25 25 23 21 21 22 22 20 20 21 23 25 30 27 26 28 17 22 21 17 18 19 17 20 24 26 26
21 18 18 19 17 17 12 13 13 19 20 19 24 26 28 30 27 27 24 22 18 18 21 23 25 22 21 20 20 19 21 24 25 26 25 26 23 22 23 25 32 29 26
20 20 18 22 14 15 16 14 16 18 20 21 20 26 32 27 24 25 23 18 15 13 19 21 21 23 27 29 24 24 26 27 24 25 27 27 23 29 29 30 28 32 37
20 18 17 17 22 13 16 16 21 18 19 13 14 22 34 32 29 25 25 18 18 24 25 27 23 22 29 29 26 28 26 33 30 27 29 20 30 30 36 37 37 39 41
19 18 18 17 20 19 13 20 12 11 16 16 13 14 27 33 30 31 31 29 34 31 27 19 26 33 34 30 25 36 34 26 23 32 35 34 31 34 34 38 40 43 44
19 19 19 19 17 18 19 16 19 17 18 18 12 13 11 20 28 37 30 32 36 37 39 41 35 37 34 26 26 31 30 31 34 36 38 41 44 44 40 40 41 44 46
Wind_Direction
287 299 315 330 334 330 322 314 305 296 285 275 276 279 279 278 276 275 274 271 268 268 271 270 268 266 270 262 270 269 268 258 260 250 242 248 254 264 264 272 260 248 216
287 300 314 323 329 330 327 317 309 299 288 276 275 280 283 280 276 274 271 269 269 270 272 270 269 267 270 281 258 261 254 263 249 247 252 257 258 254 264 268 243 221 194
290 300 307 316 322 329 325 319 310 301 291 285 281 281 283 283 277 272 270 270 271 273 274 269 270 268 268 260 251 253 253 252 244 246 250 257 254 255 261 248 235 199 203
291 301 309 315 323 330 321 314 308 301 296 291 284 281 284 280 278 277 274 277 279 271 274 270 265 258 242 239 247 257 272 235 254 240 239 234 234 242 233 215 187 194 204
295 302 306 312 325 327 317 313 309 305 300 293 288 284 284 279 279 280 282 285 276 268 246 237 229 225 219 238 232 225 214 201 232 235 237 209 214 229 208 192 207 193 202
296 303 310 318 322 322 314 315 311 303 303 298 291 285 284 280 285 284 285 261 223 207 188 204 237 199 216 222 234 228 213 203 186 196 165 171 184 187 193 207 195 213 219
304 310 310 313 312 313 314 315 317 306 300 300 298 289 281 283 283 288 248 202 221 216 207 226 224 228 252 239 242 227 212 201 199 201 200 193 194 197 199 205 223 223 230
309 303 299 303 305 309 311 311 316 313 305 301 295 291 275 272 274 271 210 217 225 224 217 232 239 231 259 233 229 222 219 223 231 231 220 223 217 216 219 216 222 224 222
298 296 295 298 306 305 301 303 310 314 305 300 293 288 273 256 269 257 225 228 220 218 218 232 223 226 244 239 233 228 230 240 240 229 233 232 224 224 222 228 222 228 222
297 297 298 298 296 301 301 298 302 306 305 296 288 277 266 260 264 245 224 227 228 211 222 235 241 235 231 225 225 228 228 230 235 231 231 233 231 227 228 229 232 216 199
294 295 294 291 295 294 294 295 296 303 298 291 286 276 259 262 266 247 231 230 234 239 233 233 250 232 227 232 228 223 221 230 239 229 237 238 237 231 228 223 219 184 201
295 287 296 291 292 293 286 298 295 293 292 286 281 271 258 254 261 254 242 234 244 263 255 238 227 241 232 227 225 219 219 225 234 245 245 242 235 238 231 227 221 217 192
293 292 290 289 288 283 277 288 289 291 296 279 269 270 266 255 251 250 240 244 248 249 254 247 234 224 229 223 223 220 224 230 229 242 234 222 232 246 257 247 227 226 226
294 295 294 292 288 273 277 284 297 289 285 273 268 265 267 267 253 248 246 245 244 247 231 216 230 220 227 225 226 229 232 235 235 234 215 231 233 232 247 236 263 240 229
300 297 294 287 286 281 279 285 288 301 280 269 268 261 264 263 257 247 242 249 241 228 215 234 225 230 232 241 243 250 243 238 237 238 225 221 225 230 232 245 241 242 259
305 297 289 283 278 276 273 279 281 290 275 257 264 261 261 260 252 245 249 248 242 224 231 216 222 234 239 243 243 249 254 240 241 239 236 224 219 228 228 234 241 246 239
318 311 298 285 273 270 273 276 274 277 263 256 258 252 259 267 255 251 246 242 234 228 211 221 230 235 235 237 242 237 234 248 256 241 229 238 234 212 224 226 236 245 246
321 314 308 283 277 278 275 267 271 272 257 253 260 258 254 257 257 253 246 240 237 236 231 222 225 229 235 235 238 233 228 224 228 232 236 229 231 220 232 230 229 234 248
326 327 305 294 285 287 263 269 273 268 262 262 258 245 253 249 250 252 253 251 244 242 238 237 235 228 231 232 231 240 227 231 234 246 249 244 247 254 230 226 239 242 243
311 318 312 299 286 283 274 277 272 278 277 263 238 259 255 247 247 251 255 256 255 252 248 241 236 230 224 231 233 240 243 226 233 240 240 237 248 258 226 245 238 238 246
308 313 298 303 300 297 282 275 273 271 279 267 243 233 253 254 247 246 247 250 251 246 237 230 245 248 236 223 226 234 223 228 238 238 247 249 257 259 262 252 255 254 257
318 307 292 299 294 299 294 282 277 291 290 282 257 240 235 241 253 246 246 252 254 253 242 230 220 223 252 257 245 239 237 240 235 245 248 233 245 243 265 250 258 239 264
328 312 309 299 289 290 290 287 286 292 301 288 283 234 227 227 227 241 247 250 255 250 243 238 228 220 223 230 236 247 245 227 246 254 258 269 248 263 264 270 269 276 267
335 334 322 320 324 303 295 297 288 291 290 286 292 245 222 233 209 225 232 236 249 238 242 237 232 227 239 224 236 221 235 239 234 246 258 239 258 261 263 260 265 263 266
314 324 334 329 334 333 326 316 294 308 294 270 285 280 243 244 224 238 234 233 236 238 241 252 236 244 237 234 213 232 242 258 251 260 261 263 262 269 271 268 267 271 265
309 307 306 312 320 329 331 323 335 300 332 305 273 271 255 246 248 246 237 245 234 239 243 250 255 246 268 264 248 250 256 262 263 266 267 264 260 261 268 266 266 270 267